EW4498 Weather Reports


time (UTC)temp
C
wind
direction
speed
KPH
gust
KPH
rain 1hr
cm
rain 24hr
cm
rain mn
cm
humidity
%
barometer
mb
20260507190043 11 339 0.0 0.0 0.00 0.00 0.00 62 1018.3
20260507184541 11 339 0.0 3.2 0.00 0.00 0.00 57 1018.2
20260507183047 12 339 0.0 4.8 0.00 0.00 0.00 53 1018.1
20260507181542 12 324 0.0 6.4 0.00 0.00 0.00 51 1018.1
20260507180050 13 360 0.0 8.0 0.00 0.00 0.00 49 1018.0
20260507174536 13 347 1.6 8.0 0.00 0.00 0.00 46 1017.9
20260507173040 13 40 3.2 8.0 0.00 0.00 0.00 43 1017.8
20260507171537 13 340 6.4 14.5 0.00 0.00 0.00 43 1017.6
20260507170033 13 45 3.2 12.9 0.00 0.00 0.00 43 1017.5
20260507164538 14 44 4.8 14.5 0.00 0.00 0.00 42 1017.4
20260507163037 15 23 6.4 14.5 0.00 0.00 0.00 40 1017.4
20260507161539 15 13 4.8 14.5 0.00 0.00 0.00 38 1017.3
20260507160042 15 350 1.6 20.9 0.00 0.00 0.00 37 1017.3
20260507154531 15 331 8.0 16.1 0.00 0.00 0.00 37 1017.4
20260507153030 15 355 6.4 16.1 0.00 0.00 0.00 37 1017.2
20260507151525 16 51 6.4 19.3 0.00 0.00 0.00 40 1017.1
20260507150028 15 331 4.8 14.5 0.00 0.00 0.00 41 1017.0
20260507144529 15 30 6.4 16.1 0.00 0.00 0.00 41 1016.9
20260507143022 15 65 6.4 16.1 0.00 0.00 0.00 43 1016.9
20260507141522 14 360 3.2 11.3 0.00 0.00 0.00 45 1016.9
20260507140021 15 32 6.4 19.3 0.00 0.00 0.00 46 1017.0
20260507134520 15 34 6.4 14.5 0.00 0.00 0.00 45 1016.9
20260507133020 15 30 6.4 20.9 0.00 0.00 0.00 47 1016.8
20260507131518 15 66 8.0 17.7 0.00 0.00 0.00 53 1016.9
20260507130025 14 20 6.4 16.1 0.00 0.00 0.00 48 1016.9
20260507124519 15 29 8.0 19.3 0.00 0.00 0.00 48 1016.7
20260507123015 16 5 4.8 16.1 0.00 0.00 0.00 46 1016.6
20260507121513 16 351 3.2 17.7 0.00 0.00 0.00 45 1016.5
20260507120012 15 337 0.0 16.1 0.00 0.00 0.00 48 1016.5
20260507114511 16 42 1.6 19.3 0.00 0.00 0.00 47 1016.4
20260507113013 15 47 1.6 14.5 0.00 0.00 0.00 42 1016.4
20260507111507 16 340 1.6 9.7 0.00 0.00 0.00 44 1016.4
20260507110009 15 360 6.4 14.5 0.00 0.00 0.00 41 1016.5
20260507104503 15 338 6.4 16.1 0.00 0.00 0.00 43 1016.6
20260507103059 15 296 1.6 12.9 0.00 0.00 0.00 47 1016.5
20260507101558 15 35 3.2 14.5 0.00 0.00 0.00 46 1016.5
20260507100055 14 355 6.4 14.5 0.00 0.00 0.00 46 1016.4
20260507094550 14 15 4.8 12.9 0.00 0.00 0.00 48 1016.4
20260507093048 14 323 8.0 20.9 0.00 0.00 0.00 44 1016.4
20260507091545 14 319 4.8 12.9 0.00 0.00 0.00 45 1016.2
20260507090040 13 23 4.8 14.5 0.00 0.00 0.00 47 1016.1
20260507084538 13 32 3.2 8.0 0.00 0.00 0.00 50 1016.1
20260507083033 13 5 1.6 9.7 0.00 0.00 0.00 46 1016.0
20260507081528 13 70 3.2 9.7 0.00 0.00 0.00 48 1016.0
20260507080023 12 55 4.8 12.9 0.00 0.00 0.00 53 1015.9
20260507074520 12 323 4.8 9.7 0.00 0.00 0.00 51 1015.8
20260507073015 12 355 1.6 9.7 0.00 0.00 0.00 51 1015.7
20260507071512 12 325 3.2 8.0 0.00 0.00 0.00 53 1015.7
20260507070010 11 346 1.6 8.0 0.00 0.00 0.00 57 1015.6
20260507064502 10 32 3.2 8.0 0.00 0.00 0.00 62 1015.4
20260507063101 10 314 3.2 8.0 0.00 0.00 0.00 70 1015.4
20260507061554 9 28 3.2 8.0 0.00 0.00 0.00 73 1015.3
20260507060049 9 338 3.2 8.0 0.00 0.00 0.00 76 1015.3
20260507054545 8 19 4.8 8.0 0.00 0.00 0.00 78 1015.2
20260507053040 7 24 1.6 6.4 0.00 0.00 0.00 82 1015.1
20260507051536 6 153 0.0 3.2 0.00 0.00 0.00 88 1015.0
20260507050035 4 178 0.0 0.0 0.00 0.00 0.00 89 1015.0
20260507044527 2 178 0.0 0.0 0.00 0.00 0.00 91 1014.9
20260507043023 1 178 0.0 0.0 0.00 0.00 0.00 92 1014.8
20260507041518 0 178 0.0 0.0 0.00 0.00 0.00 90 1014.7
20260507040018 0 178 0.0 0.0 0.00 0.00 0.00 90 1014.7
20260507034528 0 177 0.0 0.0 0.00 0.00 0.00 89 1014.6
20260507033013 0 177 0.0 0.0 0.00 0.00 0.00 89 1014.5
20260507031512 0 177 0.0 0.0 0.00 0.00 0.00 89 1014.2
20260507030011 1 177 0.0 0.0 0.00 0.00 0.00 89 1014.3
20260507024507 1 177 0.0 0.0 0.00 0.00 0.00 89 1014.3
20260507023005 1 177 0.0 0.0 0.00 0.00 0.00 89 1014.1
20260507021502 1 177 0.0 0.0 0.00 0.00 0.00 89 1014.0
20260507020100 1 177 0.0 0.0 0.00 0.00 0.00 89 1013.9
20260507014603 1 177 0.0 0.0 0.00 0.00 0.00 88 1013.8
20260507013116 2 177 0.0 0.0 0.00 0.00 0.00 89 1013.7
20260507011558 2 177 0.0 0.0 0.00 0.00 0.00 88 1013.6
20260507004552 2 177 0.0 0.0 0.00 0.00 0.00 88 1013.5
20260507003049 2 176 0.0 0.0 0.00 0.00 0.00 87 1013.5
20260507001551 3 176 0.0 0.0 0.00 0.00 0.00 87 1013.5
20260507000045 3 176 0.0 0.0 0.00 0.00 0.00 88 1013.5
20260506234544 3 176 0.0 0.0 0.00 0.00 0.00 88 1013.5
20260506233056 3 176 0.0 0.0 0.00 0.00 0.00 87 1013.4
20260506231541 3 176 0.0 0.0 0.00 0.00 0.00 87 1013.5
20260506230037 3 176 0.0 0.0 0.00 0.00 0.00 86 1013.4
20260506224536 4 176 0.0 0.0 0.00 0.00 0.00 86 1013.3
20260506223034 3 176 0.0 0.0 0.00 0.00 0.00 85 1013.2
20260506221533 4 176 0.0 0.0 0.00 0.00 0.00 85 1013.2
20260506220030 4 176 0.0 0.0 0.00 0.00 0.00 85 1013.2
20260506214528 5 176 0.0 0.0 0.00 0.00 0.00 84 1013.1
20260506213028 5 176 0.0 0.0 0.00 0.00 0.00 84 1012.9
20260506211528 5 176 0.0 0.0 0.00 0.00 0.00 81 1013.0
20260506210025 5 176 0.0 0.0 0.00 0.00 0.00 80 1012.9
20260506204640 6 176 0.0 0.0 0.00 0.00 0.00 80 1012.9
20260506203038 6 176 0.0 0.0 0.00 0.00 0.00 80 1012.8
20260506201637 6 176 0.0 4.8 0.00 0.00 0.00 79 1012.7
20260506200045 6 177 0.0 4.8 0.00 0.00 0.00 78 1012.7
20260506194505 7 176 0.0 4.8 0.00 0.00 0.00 76 1012.6
20260506193107 7 180 1.6 4.8 0.00 0.00 0.00 75 1012.6
20260506191535 7 167 0.0 1.6 0.00 0.00 0.00 73 1012.5
20260506190137 8 163 3.2 8.0 0.00 0.00 0.00 71 1012.3